Weather History for Beaver Island, MI

Change the Weather History Date:

Wednesday, November 13, 2013

  Actual Average Record
Temperature  
Mean Temperature 37 °F -  
Max Temperature 44 °F 39 °F 57 °F (2001)
Min Temperature 30 °F 29 °F 13 °F (1986)
Degree Days  
Heating Degree Days 28    
Moisture  
Dew Point 27 °F    
Average Humidity 64    
Maximum Humidity 79    
Minimum Humidity 43    
Precipitation  
Precipitation 0.00 in - - ()
Sea Level Pressure  
Sea Level Pressure 30.09 in    
Wind  
Wind Speed 16 mph (SW)    
Max Wind Speed 33 mph    
Max Gust Speed 46 mph    
Visibility 10 miles    
Events      
Averages and records for this station are not official NWS values.
T = Trace of Precipitation, MM = Missing Value Source: NWS Daily Summary

Daily Weather History Graph

Daily Weather History Graph

Search for Another Location

Airport:

Trip Planner

Search our weather history database for the weather conditions in past years. The results will help you decide how hot, cold, wet, or windy it might be!

Date:

Astronomy

Nov. 13, 2013 Rise Set
Actual Time 7:39 AM EST 5:13 PM EST
Civil Twilight 7:07 AM EST 5:45 PM EST
Nautical Twilight 6:31 AM EST 6:21 PM EST
Astronomical Twilight 5:56 AM EST 6:56 PM EST
Moon 3:10 PM EST (11/13) 3:20 AM EST (11/13)
Length of Visible Light 10h 38m
Length of Day
9h 33m
Waxing Gibbous, 84% of the Moon is Illuminated
Nov 13
Waxing Gibbous
Nov 17
Full
Nov 25
Last Quarter
Dec 2
New
Dec 9
First Quarter

Hourly Weather History & Observations

Time (EST) Temp. Windchill Dew Point Humidity Pressure Visibility Wind Dir Wind Speed Gust Speed Precip Events Conditions
12:15 AM 30.9 °F 22.2 °F 10.9 °F 43% 30.40 in 10.0 mi West 10.4 mph 16.1 mph N/A   Clear
12:36 AM 30.6 °F 22.4 °F 11.7 °F 45% 30.40 in 10.0 mi West 9.2 mph - N/A   Clear
12:56 AM 30.4 °F 22.9 °F 13.6 °F 50% 30.39 in 10.0 mi West 8.1 mph - N/A   Clear
1:16 AM 30.2 °F 20.8 °F 13.8 °F 51% 30.39 in 10.0 mi West 11.5 mph - N/A   Clear
1:35 AM 30.2 °F 20.8 °F 14.9 °F 53% 30.38 in 10.0 mi West 11.5 mph 16.1 mph N/A   Clear
1:56 AM 30.6 °F 24.7 °F 16.7 °F 56% 30.38 in 10.0 mi West 5.8 mph - N/A   Clear
2:16 AM 30.6 °F 21.8 °F 17.4 °F 58% 30.36 in 10.0 mi West 10.4 mph - N/A   Clear
2:35 AM 30.4 °F 22.2 °F 18.5 °F 61% 30.36 in 10.0 mi West 9.2 mph - N/A   Clear
2:56 AM 31.1 °F 22.4 °F 19.2 °F 61% 30.35 in 10.0 mi WSW 10.4 mph - N/A   Clear
3:16 AM 30.9 °F 23.5 °F 19.6 °F 63% 30.34 in 10.0 mi WSW 8.1 mph - N/A   Clear
3:35 AM 30.9 °F 22.2 °F 19.4 °F 62% 30.33 in 10.0 mi WSW 10.4 mph - N/A   Clear
3:56 AM 30.4 °F 22.9 °F 20.1 °F 66% 30.33 in 10.0 mi SW 8.1 mph - N/A   Clear
4:16 AM 31.1 °F 23.1 °F 20.1 °F 64% 30.32 in 10.0 mi SW 9.2 mph 16.1 mph N/A   Scattered Clouds
4:35 AM 31.6 °F 23.1 °F 21.4 °F 66% 30.31 in 10.0 mi SW 10.4 mph - N/A   Scattered Clouds
4:56 AM 31.8 °F 22.8 °F 22.1 °F 67% 30.30 in 10.0 mi SW 11.5 mph - N/A   Scattered Clouds
5:15 AM 32.0 °F 24.2 °F 23.4 °F 70% 30.30 in 10.0 mi SW 9.2 mph 24.2 mph N/A   Mostly Cloudy
5:36 AM 32.0 °F 23.0 °F 23.4 °F 70% 30.29 in 10.0 mi SW 11.5 mph 18.4 mph N/A   Mostly Cloudy
5:56 AM 32.2 °F 22.3 °F 23.7 °F 71% 30.28 in 10.0 mi WSW 13.8 mph 20.7 mph N/A   Scattered Clouds
6:15 AM 32.5 °F 21.9 °F 24.8 °F 73% 30.27 in 10.0 mi WSW 16.1 mph 19.6 mph N/A   Scattered Clouds
6:36 AM 32.9 °F 23.7 °F 25.7 °F 75% 30.26 in 10.0 mi SW 12.7 mph 21.9 mph N/A   Scattered Clouds
6:56 AM 32.5 °F 21.5 °F 25.7 °F 76% 30.25 in 10.0 mi SW 17.3 mph 24.2 mph N/A   Mostly Cloudy
7:15 AM 32.5 °F 23.2 °F 26.1 °F 77% 30.25 in 10.0 mi SW 12.7 mph 19.6 mph N/A   Scattered Clouds
7:36 AM 33.1 °F 23.0 °F 26.8 °F 78% 30.23 in 10.0 mi SW 15.0 mph 20.7 mph N/A   Scattered Clouds
7:55 AM 33.8 °F 23.5 °F 27.7 °F 78% 30.23 in 10.0 mi SW 16.1 mph 25.3 mph N/A   Scattered Clouds
8:16 AM 34.2 °F 24.4 °F 28.4 °F 79% 30.22 in 10.0 mi SW 15.0 mph 23.0 mph N/A   Mostly Cloudy
8:36 AM 34.7 °F 24.7 °F 28.4 °F 78% 30.22 in 10.0 mi WSW 16.1 mph 21.9 mph N/A   Scattered Clouds
8:55 AM 34.9 °F 24.6 °F 28.4 °F 77% 30.22 in 10.0 mi SW 17.3 mph 24.2 mph N/A   Mostly Cloudy
9:16 AM 35.6 °F 25.2 °F 27.3 °F 72% 30.20 in 10.0 mi WSW 18.4 mph 25.3 mph N/A   Scattered Clouds
9:36 AM 35.6 °F 25.2 °F 27.0 °F 71% 30.20 in 10.0 mi WSW 18.4 mph 26.5 mph N/A   Scattered Clouds
9:55 AM 35.6 °F 25.2 °F 27.0 °F 71% 30.18 in 10.0 mi SW 18.4 mph 27.6 mph N/A   Clear
10:16 AM 35.8 °F 25.7 °F 26.8 °F 70% 30.19 in 10.0 mi SW 17.3 mph 27.6 mph N/A   Scattered Clouds
10:35 AM 36.5 °F 26.3 °F 26.8 °F 68% 30.18 in 10.0 mi SW 18.4 mph 27.6 mph N/A   Clear
10:56 AM 38.3 °F 28.4 °F 28.0 °F 67% 30.17 in 10.0 mi SW 19.6 mph 29.9 mph N/A   Clear
11:16 AM 37.4 °F 27.8 °F 26.4 °F 65% 30.16 in 10.0 mi SW 17.3 mph 29.9 mph N/A   Clear
11:35 AM 38.7 °F 28.8 °F 26.4 °F 61% 30.15 in 10.0 mi SW 19.6 mph 28.8 mph N/A   Clear
11:56 AM 39.6 °F 29.7 °F 26.8 °F 60% 30.12 in 10.0 mi SW 20.7 mph 28.8 mph N/A   Clear
12:16 PM 39.4 °F 30.1 °F 26.6 °F 60% 30.10 in 10.0 mi SW 18.4 mph 27.6 mph N/A   Clear
12:35 PM 41.0 °F 31.9 °F 28.0 °F 60% 30.08 in 10.0 mi SW 19.6 mph 31.1 mph N/A   Clear
12:56 PM 41.7 °F 31.9 °F 28.6 °F 60% 30.06 in 10.0 mi SW 24.2 mph 33.4 mph N/A   Clear
1:15 PM 41.5 °F 32.1 °F 29.8 °F 63% 30.04 in 10.0 mi SW 21.9 mph 33.4 mph N/A   Clear
1:36 PM 41.2 °F 31.9 °F 30.7 °F 66% 30.02 in 10.0 mi SSW 20.7 mph 34.5 mph N/A   Clear
1:56 PM 41.0 °F 31.6 °F 30.9 °F 67% 30.00 in 10.0 mi SSW 20.7 mph 32.2 mph N/A   Clear
2:15 PM 42.4 °F 32.4 °F 31.5 °F 65% 30.00 in 10.0 mi SSW 26.5 mph 36.8 mph N/A   Clear
2:36 PM 41.9 °F 32.6 °F 31.5 °F 66% 29.98 in 10.0 mi SSW 21.9 mph 35.7 mph N/A   Clear
2:56 PM 41.9 °F 31.5 °F 31.1 °F 66% 29.95 in 10.0 mi SSW 27.6 mph 36.8 mph N/A   Clear
3:15 PM 41.0 °F 30.5 °F 31.1 °F 68% 29.95 in 10.0 mi SW 26.5 mph 34.5 mph N/A   Clear
3:36 PM 41.4 °F 30.9 °F 30.9 °F 66% 29.93 in 10.0 mi SSW 26.5 mph 39.1 mph N/A   Clear
3:56 PM 41.9 °F 31.7 °F 30.4 °F 64% 29.92 in 10.0 mi SSW 26.5 mph 41.4 mph N/A   Clear
4:16 PM 42.1 °F 32.3 °F 31.1 °F 65% 29.91 in 10.0 mi SSW 24.2 mph 33.4 mph N/A   Clear
4:36 PM 41.9 °F 32.3 °F 30.6 °F 64% 29.89 in 10.0 mi SSW 23.0 mph 38.0 mph N/A   Clear
4:55 PM 42.1 °F 33.1 °F 30.4 °F 63% 29.88 in 10.0 mi SSW 20.7 mph 46.0 mph N/A   Clear
5:16 PM 41.9 °F 33.1 °F 30.7 °F 65% 29.87 in 10.0 mi SSW 19.6 mph 38.0 mph N/A   Clear
5:36 PM 42.3 °F 32.4 °F 30.6 °F 63% 29.86 in 10.0 mi SSW 25.3 mph 39.1 mph N/A   Clear
5:56 PM 42.4 °F 32.0 °F 30.7 °F 63% 29.87 in 10.0 mi SW 28.8 mph 39.1 mph N/A   Clear
6:16 PM 42.8 °F 32.9 °F 30.4 °F 62% 29.87 in 10.0 mi SW 26.5 mph 41.4 mph N/A   Clear
6:35 PM 43.2 °F 33.4 °F 30.0 °F 60% 29.86 in 10.0 mi SW 26.5 mph 40.3 mph N/A   Clear
6:56 PM 43.7 °F 34.5 °F 30.9 °F 61% 29.85 in 10.0 mi SSW 24.2 mph 40.3 mph N/A   Clear
7:15 PM 43.9 °F 34.5 °F 31.8 °F 63% 29.85 in 10.0 mi SSW 25.3 mph 39.1 mph N/A   Clear
7:36 PM 44.1 °F 34.8 °F 32.0 °F 63% 29.85 in 10.0 mi SW 25.3 mph 39.1 mph N/A   Clear
7:56 PM 44.2 °F 34.6 °F 31.8 °F 62% 29.85 in 10.0 mi SW 27.6 mph 39.1 mph N/A   Clear
8:16 PM 44.2 °F 34.2 °F 31.8 °F 62% 29.84 in 10.0 mi SW 29.9 mph 46.0 mph N/A   Clear
8:36 PM 44.1 °F 34.8 °F 31.1 °F 60% 29.84 in 10.0 mi SW 25.3 mph 41.4 mph N/A   Clear
8:55 PM 44.2 °F 35.0 °F 31.8 °F 62% 29.85 in 10.0 mi SW 25.3 mph 36.8 mph N/A   Clear
9:16 PM 44.1 °F 34.0 °F 30.9 °F 60% 29.86 in 10.0 mi SW 29.9 mph 40.3 mph N/A   Clear
9:35 PM 43.7 °F 33.0 °F 30.6 °F 60% 29.86 in 10.0 mi SW 33.4 mph 41.4 mph N/A   Clear
9:56 PM 43.0 °F 34.0 °F 30.4 °F 61% 29.87 in 10.0 mi SW 21.9 mph 40.3 mph N/A   Clear
10:16 PM 42.8 °F 32.9 °F 30.7 °F 62% 29.88 in 10.0 mi SW 26.5 mph 35.7 mph N/A   Clear
10:35 PM 42.8 °F 33.8 °F 29.5 °F 59% 29.88 in 10.0 mi SW 21.9 mph 40.3 mph N/A   Clear
10:56 PM 42.8 °F 33.5 °F 29.5 °F 59% 29.88 in 10.0 mi SW 23.0 mph 42.6 mph N/A   Clear
11:16 PM 42.4 °F 33.1 °F 29.5 °F 60% 29.88 in 10.0 mi SW 23.0 mph 36.8 mph N/A   Clear
11:36 PM 42.3 °F 31.9 °F 28.9 °F 59% 29.87 in 10.0 mi SW 27.6 mph 39.1 mph N/A   Clear
11:56 PM 42.3 °F 32.8 °F 28.9 °F 59% 29.87 in 10.0 mi SW 23.0 mph 35.7 mph N/A   Clear